{"data":{"norad_id":45542,"epoch":"2026-09-19T06:54:07.982496Z","epoch_age_seconds":119163,"freshness":"FRESH","line1":"1 45542U 20025M   26262.28759239  .00083665  00000+0  41415-3 0  9997","line2":"2 45542  53.0362 219.6309 0005943  69.3444 290.8214 15.81324525355647","mean_motion":15.81324525,"eccentricity":0.0005943,"inclination_deg":53.0362,"raan_deg":219.6309,"arg_perigee_deg":69.3444,"mean_anomaly_deg":290.8214,"bstar":0.00041415,"rev_number":35564,"period_min":91.062901841733,"perigee_km":322.70933970812,"apogee_km":330.67870185943,"semimajor_km":6704.8310207838,"source":"CELESTRAK","updated_at":"2026-09-20T09:00:38.446237Z"}}